TimeCDT,TemperatureF,Dew PointF,Humidity,Sea Level PressureIn,VisibilityMPH,Wind Direction,Wind SpeedMPH,Gust SpeedMPH,PrecipitationIn,Events,Conditions,WindDirDegrees,DateUTC
12:15 AM,37.4,33.8,87,29.99,10.0,NE,6.9,-,N/A,,Mostly Cloudy,40,2013-03-17 05:15:00
12:35 AM,37.4,33.8,87,30.00,10.0,NE,9.2,-,N/A,,Overcast,50,2013-03-17 05:35:00
12:55 AM,37.4,33.8,87,30.03,10.0,North,5.8,-,N/A,,Overcast,360,2013-03-17 05:55:00
1:15 AM,37.4,33.8,87,30.02,10.0,NE,6.9,-,N/A,Rain-Thunderstorm,Light Thunderstorms and Rain,40,2013-03-17 06:15:00
1:35 AM,37.4,33.8,87,30.03,2.0,North,4.6,-,0.05,Rain,Rain,360,2013-03-17 06:35:00
1:55 AM,37.4,35.6,93,30.01,3.0,NE,5.8,-,0.09,Rain,Heavy Rain,40,2013-03-17 06:55:00
2:15 AM,37.4,35.6,93,30.02,5.0,NNE,8.1,-,0.02,Rain,Light Rain,20,2013-03-17 07:15:00
2:35 AM,37.4,35.6,93,30.05,4.0,North,5.8,-,0.04,Rain,Rain,360,2013-03-17 07:35:00
2:55 AM,35.6,35.6,100,30.04,2.5,NNE,9.2,-,0.09,Rain,Rain,20,2013-03-17 07:55:00
3:15 AM,35.6,35.6,100,30.03,2.5,NNE,8.1,-,0.04,Rain,Rain,20,2013-03-17 08:15:00
3:35 AM,35.6,35.6,100,30.05,4.0,North,5.8,-,0.06,Rain,Light Rain,10,2013-03-17 08:35:00
3:55 AM,35.6,35.6,100,30.05,4.0,NNE,9.2,-,0.09,Rain,Rain,20,2013-03-17 08:55:00
4:15 AM,35.6,35.6,100,30.04,4.0,NNE,10.4,-,0.02,Rain,Rain,30,2013-03-17 09:15:00
4:35 AM,35.6,35.6,100,30.04,5.0,NNE,10.4,-,0.04,Rain,Light Rain,30,2013-03-17 09:35:00
4:55 AM,35.6,35.6,100,30.03,7.0,NNE,8.1,-,0.05,Rain,Light Rain,30,2013-03-17 09:55:00
5:15 AM,35.6,35.6,100,30.04,7.0,NNE,10.4,-,0.01,Rain,Rain,30,2013-03-17 10:15:00
5:35 AM,35.6,33.8,93,30.05,5.0,NNE,13.8,-,0.03,Rain,Rain,20,2013-03-17 10:35:00
5:55 AM,35.6,33.8,93,30.06,5.0,North,12.7,-,0.04,,Drizzle,10,2013-03-17 10:55:00
6:15 AM,33.8,33.8,100,30.06,3.0,NNE,13.8,17.3,0.02,Rain,Light Rain,20,2013-03-17 11:15:00
6:35 AM,33.8,33.8,100,30.05,5.0,NE,13.8,19.6,0.03,,Drizzle,40,2013-03-17 11:35:00
6:55 AM,33.8,33.8,100,30.04,5.0,NE,12.7,-,0.03,Rain,Rain,50,2013-03-17 11:55:00
7:15 AM,33.8,33.8,100,30.06,2.5,NNE,12.7,18.4,0.02,Rain,Light Rain,20,2013-03-17 12:15:00
7:35 AM,33.8,33.8,100,30.07,3.0,NNE,13.8,-,0.03,Rain,Rain,20,2013-03-17 12:35:00
7:55 AM,33.8,33.8,100,30.06,2.0,NE,11.5,18.4,0.06,Rain,Light Rain,40,2013-03-17 12:55:00
8:15 AM,33.8,33.8,100,30.07,3.0,NNE,11.5,-,0.03,Rain,Rain,20,2013-03-17 13:15:00
8:35 AM,33.8,33.8,100,30.07,3.0,NE,11.5,-,0.06,Rain,Light Rain,40,2013-03-17 13:35:00
8:55 AM,33.8,33.8,100,30.07,3.0,NE,9.2,-,0.09,Rain,Light Rain,40,2013-03-17 13:55:00
9:15 AM,33.8,33.8,100,30.06,2.5,NE,9.2,17.3,0.04,Rain,Rain,50,2013-03-17 14:15:00
9:35 AM,33.8,33.8,100,30.06,3.0,NE,11.5,-,0.06,Rain,Light Rain,50,2013-03-17 14:35:00
9:55 AM,33.8,33.8,100,30.06,1.5,NE,10.4,-,0.14,,Overcast,40,2013-03-17 14:55:00
10:15 AM,35.6,35.6,100,30.05,3.0,NE,10.4,-,0.03,Rain,Light Rain,40,2013-03-17 15:15:00
10:35 AM,35.6,35.6,100,30.06,3.0,NE,9.2,-,0.05,Rain,Light Rain,40,2013-03-17 15:35:00
10:55 AM,35.6,35.6,100,30.08,2.5,NNE,8.1,-,0.07,Rain,Light Rain,30,2013-03-17 15:55:00
11:15 AM,35.6,35.6,100,30.08,2.0,NE,8.1,-,0.05,Rain,Rain,40,2013-03-17 16:15:00
11:35 AM,35.6,35.6,100,30.08,2.5,NNE,8.1,-,0.11,Rain,Rain,30,2013-03-17 16:35:00
11:55 AM,35.6,35.6,100,30.07,1.8,NE,9.2,-,0.18,Rain,Rain,50,2013-03-17 16:55:00
12:15 PM,35.6,35.6,100,30.06,2.5,ENE,8.1,-,0.04,Rain,Rain,60,2013-03-17 17:15:00
12:35 PM,35.6,35.6,100,30.02,5.0,ENE,13.8,-,0.06,Rain,Light Rain,70,2013-03-17 17:35:00
12:55 PM,37.4,37.4,100,30.01,5.0,ENE,10.4,19.6,0.06,Rain,Light Rain,70,2013-03-17 17:55:00
1:15 PM,37.4,37.4,100,30.01,7.0,ENE,10.4,18.4,N/A,,Overcast,60,2013-03-17 18:15:00
1:35 PM,37.4,37.4,100,29.99,10.0,ENE,12.7,-,N/A,,Overcast,60,2013-03-17 18:35:00
1:55 PM,37.4,37.4,100,29.99,10.0,ENE,10.4,17.3,N/A,,Overcast,60,2013-03-17 18:55:00
2:15 PM,37.4,37.4,100,29.98,10.0,ENE,11.5,16.1,N/A,,Light Drizzle,60,2013-03-17 19:15:00
2:35 PM,37.4,37.4,100,29.97,10.0,ENE,12.7,-,N/A,,Drizzle,60,2013-03-17 19:35:00
2:55 PM,39.2,37.4,93,29.95,10.0,ENE,12.7,-,N/A,,Overcast,60,2013-03-17 19:55:00
3:15 PM,39.2,37.4,93,29.94,10.0,ENE,11.5,-,N/A,,Overcast,70,2013-03-17 20:15:00
3:35 PM,39.2,37.4,93,29.98,10.0,NE,8.1,-,N/A,,Overcast,50,2013-03-17 20:35:00
3:55 PM,39.2,37.4,93,29.94,5.0,ENE,11.5,-,0.03,Rain,Rain,70,2013-03-17 20:55:00
4:15 PM,39.2,37.4,93,29.92,4.0,ENE,11.5,-,0.04,Rain,Heavy Rain,60,2013-03-17 21:15:00
4:35 PM,39.2,37.4,93,29.93,10.0,NE,11.5,-,0.06,Rain,Light Rain,50,2013-03-17 21:35:00
4:55 PM,39.2,37.4,93,29.91,10.0,ENE,12.7,16.1,0.06,Rain,Light Rain,60,2013-03-17 21:55:00
5:15 PM,39.2,37.4,93,29.93,10.0,NE,9.2,-,N/A,,Overcast,40,2013-03-17 22:15:00
5:35 PM,37.4,37.4,100,29.93,7.0,NNE,10.4,-,0.02,Rain,Rain,30,2013-03-17 22:35:00
5:55 PM,37.4,37.4,100,29.91,3.0,ENE,12.7,-,0.06,Rain,Rain,70,2013-03-17 22:55:00
6:15 PM,37.4,37.4,100,29.89,2.5,ENE,15.0,-,0.05,Rain,Rain,60,2013-03-17 23:15:00
6:35 PM,37.4,37.4,100,29.87,4.0,ENE,17.3,-,0.08,Rain,Light Rain,70,2013-03-17 23:35:00
6:55 PM,37.4,37.4,100,29.85,1.2,ENE,18.4,25.3,0.14,Rain-Thunderstorm,Light Thunderstorms and Rain,70,2013-03-17 23:55:00
7:15 PM,37.4,37.4,100,29.85,1.2,East,19.6,-,0.06,Snow-Thunderstorm,Light Thunderstorms and Snow,90,2013-03-18 00:15:00
7:35 PM,37.4,37.4,100,29.86,5.0,NE,12.7,19.6,0.09,Rain-Thunderstorm,Rain,50,2013-03-18 00:35:00
7:55 PM,37.4,37.4,100,29.85,2.0,East,18.4,-,0.24,,Overcast,80,2013-03-18 00:55:00
8:15 PM,37.4,37.4,100,29.84,3.0,ENE,15.0,20.7,0.07,Snow-Thunderstorm,Light Thunderstorms and Snow,70,2013-03-18 01:15:00
8:35 PM,37.4,37.4,100,29.83,1.8,East,19.6,-,0.18,Thunderstorm,Thunderstorm,90,2013-03-18 01:35:00
8:55 PM,37.4,37.4,100,29.85,2.5,NNE,10.4,-,0.25,Rain-Thunderstorm,Thunderstorms and Rain,30,2013-03-18 01:55:00
9:15 PM,37.4,37.4,100,29.86,4.0,ENE,11.5,17.3,0.03,Rain-Thunderstorm,Light Thunderstorms and Rain,60,2013-03-18 02:15:00
9:35 PM,37.4,37.4,100,29.87,5.0,NE,8.1,-,0.05,Rain,Light Rain,50,2013-03-18 02:35:00
9:55 PM,37.4,37.4,100,29.86,10.0,ENE,11.5,-,0.07,Rain,Rain,60,2013-03-18 02:55:00
10:15 PM,37.4,37.4,100,29.85,10.0,ENE,10.4,-,N/A,Rain-Thunderstorm,Thunderstorms and Rain,60,2013-03-18 03:15:00
10:35 PM,37.4,37.4,100,29.83,10.0,ENE,15.0,-,0.03,Rain,Light Rain,70,2013-03-18 03:35:00
10:55 PM,37.4,37.4,100,29.84,10.0,NNE,10.4,-,0.03,,Overcast,20,2013-03-18 03:55:00
11:15 PM,37.4,37.4,100,29.83,10.0,NE,10.4,-,N/A,Thunderstorm,Overcast,40,2013-03-18 04:15:00
11:35 PM,37.4,37.4,100,29.83,10.0,NNE,11.5,-,N/A,,Overcast,20,2013-03-18 04:35:00
11:55 PM,37.4,35.6,93,29.82,7.0,NNE,15.0,20.7,0.01,Rain,Rain,30,2013-03-18 04:55:00